Weather History for KI75 - February, 2013

Change the Weather History Date:

Sunday, February 3, 2013

  Actual Average (KLWD) Record (KLWD)
Temperature  
Mean Temperature 24 °F 26 °F  
Max Temperature 31 °F 35 °F 63 °F (1992)
Min Temperature 16 °F 16 °F -12 °F (1989)
Degree Days  
Heating Degree Days 42 40  
Month to date heating degree days 120  
Since 1 July heating degree days 3812  
Cooling Degree Days 0 0  
Month to date cooling degree days 0  
Year to date cooling degree days 0  
Moisture  
Dew Point 17 °F    
Average Humidity 68    
Maximum Humidity 81    
Minimum Humidity 51    
Precipitation  
Precipitation 0.00 in 0.04 in 0.49 in (2008)
Month to date precipitation 0.13  
Sea Level Pressure  
Sea Level Pressure 30.03 in    
Wind  
Wind Speed 15 mph (SW)    
Max Wind Speed 26 mph    
Max Gust Speed 40 mph    
Visibility 10 miles    
Events      
T = Trace of Precipitation, MM = Missing Value Source: NWS Daily Summary

Daily Weather History Graph

Daily Weather History Graph

Search for Another Location

Airport or City:

Trip Planner

Search our weather history database for the weather conditions in past years. The results will help you decide how hot, cold, wet, or windy it might be!

Date:

Astronomy

Feb. 03, 2013 Rise Set
Actual Time 7:23 AM CST 5:34 PM CST
Civil Twilight 6:54 AM CST 6:03 PM CST
Nautical Twilight 6:21 AM CST 6:36 PM CST
Astronomical Twilight 5:49 AM CST 7:08 PM CST
Moon 12:51 AM CST (2/3) 11:11 AM CST (2/3)
Length of Visible Light 11h 09m
Length of Day
10h 11m
Waning Gibbous, 48% of the Moon is Illuminated
Feb 3
Waning Gibbous
Feb 10
New
Feb 17
First Quarter
Feb 25
Full
Mar 4
Last Quarter

Hourly Weather History & Observations

Time (CST) Temp. Windchill Dew Point Humidity Pressure Visibility Wind Dir Wind Speed Gust Speed Precip Events Conditions
12:15 AM 31.1 °F 20.5 °F 25.5 °F 80% 29.99 in 10.0 mi West 15.0 mph - N/A   Overcast
12:35 AM 31.5 °F 20.5 °F 25.5 °F 79% 30.00 in 10.0 mi WNW 16.1 mph - N/A   Mostly Cloudy
12:55 AM 31.5 °F 18.5 °F 24.8 °F 76% 30.01 in 7.0 mi WNW 23.0 mph 33.4 mph N/A   Scattered Clouds
1:15 AM 30.2 °F 17.4 °F 23.0 °F 75% 30.02 in 5.0 mi NW 20.7 mph 29.9 mph N/A   Haze
1:35 AM 27.9 °F 13.4 °F 21.2 °F 76% 30.03 in 2.0 mi WNW 24.2 mph 40.3 mph N/A   Haze
1:55 AM 26.6 °F 11.1 °F 20.3 °F 77% 30.03 in 5.0 mi WNW 26.5 mph 31.1 mph N/A   Haze
2:15 AM 26.2 °F 11.5 °F 21.0 °F 81% 30.05 in 7.0 mi WNW 23.0 mph 29.9 mph N/A   Mostly Cloudy
2:35 AM 25.3 °F 11.4 °F 19.4 °F 78% 30.06 in 10.0 mi WNW 19.6 mph 26.5 mph N/A   Scattered Clouds
2:55 AM 24.6 °F 10.1 °F 18.3 °F 77% 30.08 in 7.0 mi WNW 20.7 mph 28.8 mph N/A   Overcast
3:15 AM 23.9 °F 8.8 °F 17.6 °F 77% 30.08 in 7.0 mi WNW 21.9 mph 28.8 mph N/A   Overcast
3:35 AM 23.9 °F 9.5 °F 17.6 °F 77% 30.08 in 7.0 mi WNW 19.6 mph 27.6 mph N/A   Overcast
3:55 AM 23.4 °F 8.8 °F 16.7 °F 76% 30.08 in 10.0 mi WNW 19.6 mph 26.5 mph N/A   Overcast
4:15 AM 23.0 °F 8.0 °F 16.7 °F 77% 30.08 in 10.0 mi WNW 20.7 mph 27.6 mph N/A   Overcast
4:35 AM 22.8 °F 9.4 °F 16.2 °F 76% 30.09 in 10.0 mi WNW 16.1 mph 26.5 mph N/A   Overcast
4:55 AM 22.3 °F 7.0 °F 15.8 °F 76% 30.10 in 10.0 mi WNW 20.7 mph 27.6 mph N/A   Overcast
5:15 AM 21.2 °F 6.8 °F 14.9 °F 77% 30.11 in 10.0 mi WNW 17.3 mph 23.0 mph N/A   Overcast
5:35 AM 21.2 °F 8.3 °F 14.9 °F 77% 30.13 in 10.0 mi WNW 13.8 mph - N/A   Overcast
6:15 AM 18.9 °F 7.2 °F 14.0 °F 81% 30.13 in 10.0 mi WNW 10.4 mph - N/A   Scattered Clouds
6:35 AM 18.3 °F 6.6 °F 13.1 °F 80% 30.14 in 10.0 mi WNW 10.4 mph - N/A   Clear
6:55 AM 17.6 °F 5.7 °F 12.2 °F 79% 30.14 in 10.0 mi WNW 10.4 mph - N/A   Clear
7:15 AM 16.9 °F 4.1 °F 11.8 °F 81% 30.15 in 10.0 mi West 11.5 mph - N/A   Clear
7:35 AM 16.5 °F 4.3 °F 11.3 °F 80% 30.16 in 10.0 mi West 10.4 mph - N/A   Clear
7:55 AM 16.7 °F 4.5 °F 11.3 °F 79% 30.16 in 10.0 mi West 10.4 mph - N/A   Clear
8:35 AM 18.0 °F 6.9 °F 11.1 °F 75% 30.16 in 10.0 mi West 9.2 mph - N/A   Clear
8:55 AM 18.7 °F 7.0 °F 11.3 °F 73% 30.17 in 10.0 mi West 10.4 mph - N/A   Clear
9:15 AM 19.4 °F 8.6 °F 11.3 °F 71% 30.17 in 10.0 mi WNW 9.2 mph - N/A   Clear
9:35 AM 20.3 °F 10.6 °F 11.3 °F 68% 30.17 in 10.0 mi West 8.1 mph - N/A   Clear
9:55 AM 21.2 °F 11.7 °F 11.1 °F 65% 30.18 in 10.0 mi West 8.1 mph - N/A   Clear
10:15 AM 21.9 °F 12.5 °F 11.5 °F 64% 30.18 in 10.0 mi West 8.1 mph - N/A   Clear
10:35 AM 22.8 °F 12.9 °F 11.3 °F 61% 30.18 in 10.0 mi West 9.2 mph - N/A   Scattered Clouds
10:55 AM 23.7 °F 15.6 °F 11.5 °F 60% 30.16 in 10.0 mi SW 6.9 mph - N/A   Mostly Cloudy
11:15 AM 24.4 °F 15.6 °F 13.1 °F 62% 30.16 in 10.0 mi WSW 8.1 mph - N/A   Overcast
11:35 AM 25.7 °F 16.4 °F 12.4 °F 57% 30.16 in 10.0 mi WSW 9.2 mph - N/A   Scattered Clouds
11:55 AM 26.6 °F 18.2 °F 12.4 °F 55% 30.16 in 10.0 mi WSW 8.1 mph - N/A   Clear
12:15 PM 27.7 °F 19.6 °F 13.1 °F 54% 30.13 in 10.0 mi WSW 8.1 mph - N/A   Scattered Clouds
12:35 PM 28.4 °F 20.4 °F 15.3 °F 58% 30.13 in 10.0 mi SSW 8.1 mph - N/A   Overcast
12:55 PM 28.6 °F 19.3 °F 15.6 °F 58% 30.12 in 10.0 mi SW 10.4 mph - N/A   Overcast
1:15 PM 29.3 °F 20.8 °F 15.6 °F 57% 30.10 in 10.0 mi SW 9.2 mph - N/A   Scattered Clouds
1:35 PM 29.8 °F 21.5 °F 15.4 °F 55% 30.08 in 10.0 mi SW 9.2 mph - N/A   Clear
1:55 PM 30.6 °F 21.8 °F 16.0 °F 55% 30.07 in 10.0 mi SW 10.4 mph - N/A   Clear
2:15 PM 31.1 °F 22.4 °F 16.2 °F 54% 30.06 in 10.0 mi SSW 10.4 mph - N/A   Clear
2:35 PM 31.5 °F 22.9 °F 17.2 °F 56% 30.05 in 10.0 mi SSW 10.4 mph - N/A   Clear
2:55 PM 31.5 °F 22.3 °F 15.1 °F 51% 30.03 in 10.0 mi SSW 11.5 mph - N/A   Clear
3:15 PM 31.5 °F 21.8 °F 15.3 °F 51% 30.02 in 10.0 mi South 12.7 mph - N/A   Clear
3:35 PM 31.8 °F 22.3 °F 16.3 °F 53% 30.01 in 10.0 mi South 12.7 mph - N/A   Clear
3:55 PM 31.8 °F 21.8 °F 16.7 °F 54% 30.00 in 10.0 mi South 13.8 mph - N/A   Clear
4:15 PM 31.1 °F 23.1 °F 17.2 °F 57% 29.99 in 10.0 mi South 9.2 mph - N/A   Clear
4:35 PM 31.1 °F 22.4 °F 17.1 °F 56% 29.98 in 10.0 mi South 10.4 mph - N/A   Clear
4:55 PM 30.2 °F 21.9 °F 17.1 °F 58% 29.97 in 10.0 mi South 9.2 mph - N/A   Clear
5:15 PM 29.7 °F 22.0 °F 16.3 °F 58% 29.96 in 10.0 mi South 8.1 mph - N/A   Clear
5:35 PM 29.3 °F 20.2 °F 16.7 °F 59% 29.95 in 10.0 mi South 10.4 mph 16.1 mph N/A   Clear
5:55 PM 29.1 °F 20.0 °F 17.4 °F 62% 29.94 in 10.0 mi South 10.4 mph - N/A   Clear
6:15 PM 28.2 °F 19.5 °F 17.6 °F 64% 29.93 in 10.0 mi South 9.2 mph - N/A   Clear
6:35 PM 28.2 °F 21.0 °F 18.0 °F 65% 29.93 in 10.0 mi SSE 6.9 mph - N/A   Clear
6:55 PM 28.0 °F 20.8 °F 18.0 °F 66% 29.93 in 10.0 mi SSE 6.9 mph - N/A   Clear
7:15 PM 28.0 °F 19.3 °F 18.3 °F 67% 29.92 in 10.0 mi SSE 9.2 mph - N/A   Clear
7:55 PM 27.5 °F 21.1 °F 18.3 °F 68% 29.92 in 10.0 mi SSE 5.8 mph - N/A   Clear
8:15 PM 27.5 °F 18.6 °F 18.3 °F 68% 29.91 in 10.0 mi South 9.2 mph - N/A   Clear
8:35 PM 28.4 °F 18.5 °F 18.5 °F 66% 29.90 in 10.0 mi South 11.5 mph - N/A   Clear
8:55 PM 28.2 °F 19.5 °F 18.9 °F 68% 29.89 in 10.0 mi South 9.2 mph - N/A   Clear
9:15 PM 27.3 °F 18.4 °F 18.7 °F 70% 29.89 in 10.0 mi South 9.2 mph - N/A   Clear
9:35 PM 27.9 °F 19.1 °F 18.9 °F 69% 29.87 in 10.0 mi South 9.2 mph - N/A   Clear
9:55 PM 28.0 °F 19.3 °F 19.2 °F 70% 29.86 in 10.0 mi South 9.2 mph - N/A   Clear
10:15 PM 29.3 °F 19.6 °F 20.1 °F 69% 29.85 in 10.0 mi South 11.5 mph - N/A   Clear
10:35 PM 29.8 °F 20.3 °F 20.7 °F 69% 29.84 in 10.0 mi South 11.5 mph - N/A   Clear
10:55 PM 30.6 °F 19.4 °F 21.2 °F 68% 29.83 in 10.0 mi South 16.1 mph - N/A   Clear
11:15 PM 30.6 °F 19.8 °F 21.7 °F 70% 29.82 in 10.0 mi South 15.0 mph - N/A   Clear
11:35 PM 30.9 °F 20.7 °F 22.1 °F 70% 29.81 in 10.0 mi SSW 13.8 mph - N/A   Clear
11:55 PM 30.4 °F 20.0 °F 22.1 °F 71% 29.81 in 10.0 mi SSW 13.8 mph - N/A   Clear